Weather History for KELO - April, 2015

Change the Weather History Date:

Wednesday, April 15, 2015

  Actual Average Record
Temperature  
Mean Temperature 48 °F -  
Max Temperature 68 °F 46 °F 71 °F (2002)
Min Temperature 28 °F 25 °F 8 °F (2014)
Degree Days  
Heating Degree Days 17    
Moisture  
Dew Point 19 °F    
Average Humidity 35    
Maximum Humidity 74    
Minimum Humidity 13    
Precipitation  
Precipitation 0.00 in - - ()
Sea Level Pressure  
Sea Level Pressure 30.16 in    
Wind  
Wind Speed 5 mph (South)    
Max Wind Speed 20 mph    
Max Gust Speed 26 mph    
Visibility 10 miles    
Events      
Averages and records for this station are not official NWS values.
T = Trace of Precipitation, MM = Missing Value Source: NWS Daily Summary

Daily Weather History Graph

Daily Weather History Graph

Search for Another Location

Airport or City:

Trip Planner

Search our weather history database for the weather conditions in past years. The results will help you decide how hot, cold, wet, or windy it might be!

Date:

Astronomy

Apr. 15, 2015 Rise Set
Actual Time 6:18 AM CDT 7:57 PM CDT
Civil Twilight 5:46 AM CDT 8:29 PM CDT
Nautical Twilight 5:06 AM CDT 9:09 PM CDT
Astronomical Twilight 4:23 AM CDT 9:52 PM CDT
Moon 4:36 AM CDT (4/15) 4:18 PM CDT (4/15)
Length of Visible Light 14h 43m
Length of Day
13h 38m
Waning Crescent, 13% of the Moon is Illuminated
Apr 15
Waning Crescent
Apr 18
New
Apr 25
First Quarter
May 3
Full
May 11
Last Quarter

Hourly Weather History & Observations

Time (CDT) Temp. Windchill Dew Point Humidity Pressure Visibility Wind Dir Wind Speed Gust Speed Precip Events Conditions
12:13 AM 33.8 °F - 21.2 °F 60% 30.18 in 10.0 mi Calm Calm - N/A   Clear
12:33 AM 30.2 °F - 21.2 °F 69% 30.18 in 10.0 mi Calm Calm - N/A   Clear
12:53 AM 33.8 °F 29.6 °F 19.4 °F 56% 30.18 in 10.0 mi ESE 4.6 mph - N/A   Clear
1:13 AM 32.0 °F 28.7 °F 21.2 °F 64% 30.18 in 10.0 mi ESE 3.5 mph - N/A   Clear
1:33 AM 33.8 °F 30.8 °F 21.2 °F 60% 30.18 in 10.0 mi SE 3.5 mph - N/A   Clear
1:53 AM 30.2 °F - 21.2 °F 69% 30.18 in 10.0 mi Calm Calm - N/A   Clear
2:13 AM 30.2 °F - 21.2 °F 69% 30.18 in 10.0 mi Calm Calm - N/A   Clear
2:33 AM 30.2 °F - 21.2 °F 69% 30.18 in 10.0 mi Calm Calm - N/A   Clear
2:53 AM 30.2 °F - 21.2 °F 69% 30.18 in 10.0 mi Calm Calm - N/A   Clear
3:13 AM 30.2 °F - 21.2 °F 69% 30.19 in 10.0 mi Calm Calm - N/A   Clear
3:33 AM 32.0 °F - 19.4 °F 60% 30.19 in 10.0 mi Calm Calm - N/A   Clear
3:53 AM 30.2 °F - 21.2 °F 69% 30.19 in 10.0 mi Calm Calm - N/A   Clear
4:13 AM 30.2 °F - 19.4 °F 64% 30.19 in 10.0 mi Calm Calm - N/A   Clear
4:33 AM 30.2 °F - 19.4 °F 64% 30.19 in 10.0 mi Calm Calm - N/A   Clear
4:53 AM 30.2 °F - 19.4 °F 64% 30.19 in 10.0 mi Calm Calm - N/A   Clear
5:13 AM 30.2 °F - 19.4 °F 64% 30.19 in 10.0 mi Calm Calm - N/A   Clear
5:33 AM 28.4 °F - 19.4 °F 69% 30.20 in 10.0 mi Calm Calm - N/A   Clear
5:53 AM 32.0 °F - 21.2 °F 64% 30.20 in 10.0 mi Calm Calm - N/A   Clear
6:13 AM 30.2 °F - 19.4 °F 64% 30.20 in 10.0 mi Calm Calm - N/A   Clear
6:33 AM 28.4 °F - 21.2 °F 74% 30.21 in 10.0 mi Calm Calm - N/A   Clear
6:53 AM 30.2 °F - 21.2 °F 69% 30.22 in 10.0 mi Calm Calm - N/A   Clear
7:13 AM 33.8 °F - 23.0 °F 65% 30.22 in 10.0 mi Calm Calm - N/A   Clear
7:33 AM 37.4 °F - 23.0 °F 56% 30.22 in 10.0 mi Calm Calm - N/A   Clear
7:53 AM 46.4 °F 42.9 °F 21.2 °F 37% 30.22 in 10.0 mi SSE 6.9 mph - N/A   Clear
8:13 AM 48.2 °F - 19.4 °F 32% 30.22 in 10.0 mi South 8.1 mph - N/A   Clear
8:32 AM 51.8 °F - 19.4 °F 28% 30.22 in 10.0 mi South 8.1 mph - N/A   Clear
8:53 AM 53.6 °F - 19.4 °F 26% 30.22 in 10.0 mi South 8.1 mph - N/A   Clear
9:13 AM 57.2 °F - 19.4 °F 23% 30.22 in 10.0 mi South 9.2 mph - N/A   Clear
9:33 AM 57.2 °F - 17.6 °F 21% 30.22 in 10.0 mi South 11.5 mph 20.7 mph N/A   Clear
9:53 AM 60.8 °F - 17.6 °F 19% 30.21 in 10.0 mi South 13.8 mph 19.6 mph N/A   Clear
10:13 AM 60.8 °F - 17.6 °F 19% 30.21 in 10.0 mi SSW 12.7 mph 21.9 mph N/A   Clear
10:33 AM 62.6 °F - 17.6 °F 18% 30.21 in 10.0 mi South 13.8 mph 24.2 mph N/A   Clear
10:53 AM 62.6 °F - 15.8 °F 16% 30.21 in 10.0 mi South 12.7 mph 21.9 mph N/A   Clear
11:13 AM 64.4 °F - 15.8 °F 15% 30.20 in 10.0 mi South 18.4 mph 25.3 mph N/A   Clear
11:32 AM 64.4 °F - 15.8 °F 15% 30.20 in 10.0 mi SSW 15.0 mph 23.0 mph N/A   Clear
11:53 AM 64.4 °F - 15.8 °F 15% 30.20 in 10.0 mi SSW 16.1 mph 25.3 mph N/A   Clear
12:13 PM 66.2 °F - 15.8 °F 14% 30.19 in 10.0 mi SSW 12.7 mph 21.9 mph N/A   Clear
12:32 PM 66.2 °F - 15.8 °F 14% 30.19 in 10.0 mi South 13.8 mph 23.0 mph N/A   Clear
12:50 PM 68.0 °F - 15.8 °F 13% 30.18 in 10.0 mi South 19.6 mph 25.3 mph N/A   Clear
1:13 PM 66.2 °F - 15.8 °F 14% 30.17 in 10.0 mi South 18.4 mph 26.5 mph N/A   Clear
1:33 PM 66.2 °F - 15.8 °F 14% 30.17 in 10.0 mi South 17.3 mph 24.2 mph N/A   Clear
1:52 PM 66.2 °F - 15.8 °F 14% 30.16 in 10.0 mi South 17.3 mph 25.3 mph N/A   Clear
2:13 PM 66.2 °F - 17.6 °F 15% 30.16 in 10.0 mi South 16.1 mph 26.5 mph N/A   Clear
2:33 PM 68.0 °F - 17.6 °F 15% 30.15 in 10.0 mi SSW 17.3 mph 23.0 mph N/A   Clear
2:53 PM 66.2 °F - 17.6 °F 15% 30.14 in 10.0 mi South 15.0 mph 23.0 mph N/A   Clear
3:12 PM 68.0 °F - 17.6 °F 15% 30.14 in 10.0 mi South 11.5 mph 20.7 mph N/A   Clear
3:33 PM 68.0 °F - 17.6 °F 15% 30.13 in 10.0 mi South 15.0 mph 21.9 mph N/A   Clear
3:53 PM 68.0 °F - 15.8 °F 13% 30.13 in 10.0 mi SSW 15.0 mph 26.5 mph N/A   Clear
4:12 PM 66.2 °F - 15.8 °F 14% 30.12 in 10.0 mi South 11.5 mph 20.7 mph N/A   Clear
4:33 PM 68.0 °F - 15.8 °F 13% 30.12 in 10.0 mi South 17.3 mph 23.0 mph N/A   Clear
4:51 PM 66.2 °F - 15.8 °F 14% 30.12 in 10.0 mi South 15.0 mph 24.2 mph N/A   Clear
5:13 PM 68.0 °F - 17.6 °F 15% 30.11 in 10.0 mi SSE 17.3 mph 25.3 mph N/A   Clear
5:33 PM 66.2 °F - 15.8 °F 14% 30.11 in 10.0 mi South 15.0 mph 25.3 mph N/A   Clear
5:53 PM 66.2 °F - 15.8 °F 14% 30.11 in 10.0 mi SSW 16.1 mph 24.2 mph N/A   Clear
6:13 PM 66.2 °F - 17.6 °F 15% 30.11 in 10.0 mi South 13.8 mph 23.0 mph N/A   Clear
6:32 PM 64.4 °F - 17.6 °F 16% 30.11 in 10.0 mi South 12.7 mph 20.7 mph N/A   Clear
6:53 PM 64.4 °F - 17.6 °F 16% 30.11 in 10.0 mi South 10.4 mph 18.4 mph N/A   Clear
7:13 PM 62.6 °F - 17.6 °F 18% 30.10 in 10.0 mi South 5.8 mph - N/A   Clear
7:32 PM 60.8 °F - 17.6 °F 19% 30.10 in 10.0 mi South 9.2 mph - N/A   Clear
7:53 PM 59.0 °F - 19.4 °F 22% 30.10 in 10.0 mi SSE 6.9 mph - N/A   Clear
8:13 PM 57.2 °F - 19.4 °F 23% 30.10 in 10.0 mi South 5.8 mph - N/A   Clear
8:33 PM 57.2 °F - 19.4 °F 23% 30.11 in 10.0 mi SSE 5.8 mph - N/A   Clear
8:52 PM 55.4 °F - 19.4 °F 25% 30.11 in 10.0 mi SSE 5.8 mph - N/A   Clear
9:13 PM 53.6 °F - 19.4 °F 26% 30.12 in 10.0 mi SSE 6.9 mph - N/A   Clear
9:33 PM 50.0 °F - 21.2 °F 32% 30.12 in 10.0 mi SE 6.9 mph - N/A   Clear
9:53 PM 48.2 °F - 21.2 °F 34% 30.12 in 10.0 mi SSE 6.9 mph - N/A   Clear
10:12 PM 48.2 °F - 21.2 °F 34% 30.12 in 10.0 mi SSE 5.8 mph - N/A   Clear
10:33 PM 46.4 °F 44.3 °F 21.2 °F 37% 30.12 in 10.0 mi SE 4.6 mph - N/A   Clear
10:53 PM 44.6 °F 43.1 °F 19.4 °F 37% 30.12 in 10.0 mi SSE 3.5 mph - N/A   Clear
11:12 PM 46.4 °F 44.3 °F 19.4 °F 34% 30.11 in 10.0 mi South 4.6 mph - N/A   Clear
11:33 PM 46.4 °F - 19.4 °F 34% 30.12 in 10.0 mi Calm Calm - N/A   Clear
11:53 PM 46.4 °F 44.3 °F 19.4 °F 34% 30.12 in 10.0 mi South 4.6 mph - N/A   Clear